Volver al catálogo

CZ-6A DEB

ActivoPO
NORAD 60879·DEBRIS·🇨🇳 China

Lanzado Aug 6, 2024 desde Taiyuan Satellite Launch Center

Loading…

Próximos Pases (próximas 24 horas)

TLE

ActualizadoSource: Space-Track

Época: Sep 14, 2026, 00:41 UTC

1 60879U 24140KJ  26257.02890960  .00000647  00000-0  30262-3 0  9990
2 60879  89.0254 267.5889 0050044 258.1034 101.4541 14.18547239107526

Sigue CZ-6A DEB en tiempo real con AllMySat

Download on the App Store